Location: Dalton
(34.7700°N, 84.9700°W)
Time: 14:39:18
(UTC-05:00)

N. Korean satellite - Pass Details

Date: 13 October 2017
Orbit: 461 x 513 km, 97.2° (Epoch: 17 December)

Event Time Altitude Azimuth Distance (km) Brightness Sun altitude
Rises 19:45:54 0° 167° (SSE) 2,557 10.1 -8.7°
Reaches altitude 10° 19:47:59 10° 167° (SSE) 1,671 9.2 -9.1°
Maximum altitude 19:51:35 89° 79° (E) 488 6.5 -9.9°
Drops below altitude 10° 19:55:08 10° 349° (N) 1,652 9.4 -10.6°
Sets 19:57:11 0° 349° (N) 2,526 10.3 -11.0°
